Minneapolis Flying Cloud, MN

4:27 AM CDT on August 24, 2017 (GMT -0500)
Flying Cloud

Weather History for KFCM - December, 2012

Change the Weather History Date:

Friday, December 28, 2012

  Actual Average Record
Temperature  
Mean Temperature 19 °F -  
Max Temperature 24 °F 24 °F 44 °F (2013)
Min Temperature 14 °F 9 °F 3 °F (2008)
Degree Days  
Heating Degree Days 46    
Moisture  
Dew Point 16 °F    
Average Humidity 83    
Maximum Humidity 88    
Minimum Humidity 71    
Precipitation  
Precipitation 0.01 in - - ()
Sea Level Pressure  
Sea Level Pressure 30.07 in    
Wind  
Wind Speed 4 mph (NNE)    
Max Wind Speed 6 mph    
Max Gust Speed -    
Visibility 5 miles    
Events Snow    
Averages and records for this station are not official NWS values.
T = Trace of Precipitation, MM = Missing Value Source: NWS Daily Summary

Daily Weather History Graph

Daily Weather History Graph

Search for Another Location

Airport or City:

Trip Planner

Search our weather history database for the weather conditions in past years. The results will help you decide how hot, cold, wet, or windy it might be!

Date:

Astronomy

Dec. 28, 2012 Rise Set
Actual Time 7:51 AM CST 4:40 PM CST
Civil Twilight 7:17 AM CST 5:14 PM CST
Nautical Twilight 6:40 AM CST 5:51 PM CST
Astronomical Twilight 6:04 AM CST 6:26 PM CST
Moon 5:20 PM CST (12/28) 7:43 AM CST (12/28)
Length of Visible Light 9h 56m
Length of Day
8h 49m
Full, 100% of the Moon is Illuminated
Dec 28
Full
Jan 4
Last Quarter
Jan 11
New
Jan 18
First Quarter
Jan 26
Full

Hourly Weather History & Observations

Time (CST) Temp. Windchill Dew Point Humidity Pressure Visibility Wind Dir Wind Speed Gust Speed Precip Events Conditions
12:04 AM 19.4 °F 14.3 °F 15.8 °F 86% 30.13 in 2.5 mi ENE 3.5 mph - 0.00 in Snow Light Snow
12:41 AM 19.4 °F 11.5 °F 15.8 °F 86% 30.11 in 1.5 mi ENE 5.8 mph - 0.00 in Snow Light Snow
12:53 AM 19.9 °F 12.1 °F 16.0 °F 85% 30.16 in 1.8 mi ENE 5.8 mph - 0.00 in Snow Light Snow
1:02 AM 19.4 °F 12.8 °F 15.8 °F 86% 30.11 in 2.5 mi NE 4.6 mph - 0.00 in Snow Light Snow
1:53 AM 19.0 °F - 16.0 °F 88% 30.16 in 6.0 mi Calm Calm - 0.00 in   Overcast
2:09 AM 19.4 °F 14.3 °F 15.8 °F 86% 30.11 in 1.8 mi NE 3.5 mph - 0.00 in Snow Light Snow
2:20 AM 19.4 °F 14.3 °F 15.8 °F 86% 30.11 in 1.2 mi ENE 3.5 mph - 0.01 in Snow Light Snow
2:53 AM 19.0 °F 12.3 °F 16.0 °F 88% 30.15 in 1.8 mi NE 4.6 mph - 0.01 in Snow Light Snow
3:53 AM 19.9 °F 12.1 °F 16.0 °F 85% 30.14 in 3.0 mi NE 5.8 mph - 0.00 in Snow Light Snow
4:03 AM 19.4 °F 11.5 °F 15.8 °F 86% 30.08 in 2.0 mi NE 5.8 mph - 0.00 in Snow Light Snow
4:13 AM 19.4 °F 11.5 °F 15.8 °F 86% 30.08 in 1.8 mi NE 5.8 mph - 0.00 in Snow Light Snow
4:31 AM 19.4 °F 11.5 °F 15.8 °F 86% 30.07 in 2.0 mi NE 5.8 mph - 0.00 in Snow Light Snow
4:53 AM 19.0 °F 11.1 °F 16.0 °F 88% 30.12 in 2.0 mi NE 5.8 mph - 0.00 in Snow Light Snow
5:53 AM 19.0 °F 12.3 °F 15.1 °F 85% 30.10 in 3.0 mi NNE 4.6 mph - 0.00 in Snow Light Snow
6:53 AM 19.0 °F 13.9 °F 15.1 °F 85% 30.11 in 4.0 mi NNE 3.5 mph - 0.00 in   Overcast
7:53 AM 19.0 °F 12.3 °F 15.1 °F 85% 30.10 in 5.0 mi NE 4.6 mph - 0.00 in   Overcast
8:53 AM 19.0 °F 12.3 °F 15.1 °F 85% 30.10 in 5.0 mi NE 4.6 mph - N/A   Overcast
9:33 AM 19.4 °F 11.5 °F 15.8 °F 86% 30.06 in 1.8 mi ENE 5.8 mph - 0.00 in Snow Light Snow
9:43 AM 19.4 °F 11.5 °F 15.8 °F 86% 30.06 in 1.5 mi NE 5.8 mph - 0.00 in Snow Light Snow
9:53 AM 19.9 °F 13.4 °F 16.0 °F 85% 30.12 in 1.2 mi ENE 4.6 mph - 0.00 in Snow Light Snow
10:37 AM 21.2 °F - 15.8 °F 80% 30.07 in 2.0 mi Calm Calm - 0.00 in Snow Light Snow
10:53 AM 21.0 °F 16.2 °F 16.0 °F 81% 30.11 in 3.0 mi ENE 3.5 mph - 0.00 in Snow Light Snow
11:40 AM 21.2 °F 14.9 °F 15.8 °F 80% 30.04 in 3.0 mi ENE 4.6 mph - 0.00 in   Haze
12:25 PM 23.0 °F 17.0 °F 15.8 °F 74% 30.02 in 7.0 mi NE 4.6 mph - N/A   Mostly Cloudy
12:35 PM 23.0 °F 18.4 °F 15.8 °F 74% 30.02 in 7.0 mi ENE 3.5 mph - N/A   Mostly Cloudy
12:53 PM 24.1 °F 18.2 °F 17.1 °F 75% 30.05 in 8.0 mi North 4.6 mph - N/A   Mostly Cloudy
1:51 PM 24.8 °F - 17.6 °F 74% 29.99 in 6.0 mi Calm Calm - N/A   Haze
1:53 PM 24.1 °F 18.2 °F 17.1 °F 75% 30.04 in 6.0 mi NNE 4.6 mph - N/A   Haze
2:53 PM 24.1 °F 17.0 °F 16.0 °F 71% 30.04 in 6.0 mi North 5.8 mph - N/A   Haze
3:53 PM 23.0 °F 15.8 °F 16.0 °F 74% 30.04 in 8.0 mi NNE 5.8 mph - N/A   Overcast
4:05 PM 23.0 °F 15.8 °F 15.8 °F 74% 30.00 in 9.0 mi North 5.8 mph - N/A   Overcast
4:34 PM 23.0 °F 18.4 °F 15.8 °F 74% 29.99 in 8.0 mi North 3.5 mph - N/A   Overcast
4:53 PM 21.9 °F 15.7 °F 16.0 °F 78% 30.04 in 10.0 mi North 4.6 mph - N/A   Mostly Cloudy
5:04 PM 21.2 °F 16.4 °F 15.8 °F 80% 30.00 in 10.0 mi North 3.5 mph - N/A   Scattered Clouds
5:53 PM 19.9 °F 13.4 °F 15.1 °F 81% 30.05 in 10.0 mi North 4.6 mph - N/A   Mostly Cloudy
6:01 PM 19.4 °F 14.3 °F 15.8 °F 86% 30.01 in 10.0 mi North 3.5 mph - N/A   Mostly Cloudy
6:39 PM 19.4 °F 14.3 °F 15.8 °F 86% 30.02 in 10.0 mi NNW 3.5 mph - N/A   Mostly Cloudy
6:53 PM 19.0 °F 13.9 °F 15.1 °F 85% 30.06 in 9.0 mi NNW 3.5 mph - N/A   Scattered Clouds
7:53 PM 18.0 °F 11.1 °F 14.0 °F 84% 30.06 in 6.0 mi NNW 4.6 mph - N/A   Overcast
8:53 PM 17.1 °F 10.0 °F 14.0 °F 88% 30.06 in 6.0 mi NNW 4.6 mph - N/A   Clear
10:53 PM 14.0 °F 5.1 °F 10.9 °F 88% 30.07 in 6.0 mi NNW 5.8 mph - N/A   Clear
11:53 PM 14.0 °F 5.1 °F 10.9 °F 88% 30.06 in 6.0 mi NW 5.8 mph - N/A   Clear